Location: Unspecified
(0.0000°N, 0.0000°E)
Time: 04:46:17
(UTC+00:00)

Hubble Space Telescope - Pass Details

Date: 23 May 2019
Orbit: 536 x 540 km, 28.5° (Epoch: 21 May)

Event Time Altitude Azimuth Distance (km) Brightness Sun altitude
Rises 20:07:36 0° 320° (NW) 2,663 5.2 -30.4°
Reaches altitude 10° 20:10:11 10° 334° (NNW) 1,774 4.0 -31.0°
Enters shadow 20:11:02 14° 343° (NNW) 1,519 3.5 -31.2°
